Voltar ao catálogo

STARLINK-38175

AtivoComunicaçõesSSO
NORAD 100161·PAYLOAD·🇺🇸 United States

Lançado Jul 25, 2026 de Vandenberg Space Force Base

Loading…

Próximas Passagens (próximas 24 horas)

TLE

AtualizadoSource: Space-Track

Época: Sep 14, 2026, 12:32 UTC

1 A0161U 26171P   26257.52247752  .00013859  00000-0  38518-3 0  9995
2 A0161  97.2841 290.1046 0001037  78.5727 281.5634 15.36976314  7988

Acompanhe STARLINK-38175 em tempo real com AllMySat

Download on the App Store